Content
SEND FEEDBACK

Daily
Averages
Monthly
Summary
United States of America

NEW YORK - CENTRAL PARK, NEW YORK


Home > North America > United States > New York
Elevation: 14 feet     Latitude: 40 47N     Longitude: 073 58W

WEATHER
 
SELECT A DAY
Number of Records: 148,218;   Date Range: 11/1/95 - 8/30/14
 
SHARE

PRINT THIS DATA

[ ← Previous Day ]
WEATHER ALMANAC - JANUARY 17, 2013
[ Next Day → ]
[ °C ]   °F
Weather ElementAverageHighLow
Temperature39.5 °F43 °F (1:51 pm)36 °F (10:51 pm)
Dewpoint25.9 °F30.9 °F (1:51 am)21.9 °F (11:51 pm)
Humidity58.5 %76 % (1:51 am)49 % (1:51 pm)
Barometer30.02 in30.09 in (6:51 pm)29.91 in (4:51 am)
Wind Speed5.7 mph9.2 mph (8:51 am)
Wind Gust18.4 mph (10:51 am)
Weather ElementAverage
Visibility10 mi
Wind DirectionESE (121.3 °)

Weather ElementTotal
Precipitation---
Heating Degree Days25.5 (Base 65)
Averaged from 23 records on January 17, 2013
WEATHER CONDITIONS BREAKOUT
WIND DIRECTION BREAKOUT
WEATHER BY HOUR - JANUARY 17, 2013
[ °C ]   °F
Local TimeTemperatureDewpointHumidityBarometerVisibilityWind DirectionWind SpeedGust SpeedPrecipitationEventsConditions
1:51 AM37.9 °F30.9 °F76 %29.92 in10.0 miVariable5.8 mphClear
2:51 AM39.0 °F30.0 °F70 %29.93 in10.0 miVariable3.5 mphClear
3:51 AM39.0 °F30.0 °F70 %29.92 in10.0 miVariable3.5 mphScattered Clouds
4:51 AM39.0 °F28.9 °F67 %29.91 in10.0 miWNW (290°)8.1 mphScattered Clouds
5:51 AM39.0 °F28.0 °F65 %29.95 in10.0 miWest (270°)6.9 mphOvercast
6:51 AM39.0 °F27.0 °F62 %29.98 in10.0 miWNW (290°)5.8 mphClear
7:51 AM37.9 °F26.1 °F62 %30.01 in10.0 miVariable5.8 mphClear
8:51 AM39.0 °F26.1 °F60 %30.05 in10.0 miWest (280°)9.2 mphClear
9:51 AM39.9 °F26.1 °F58 %30.06 in10.0 miWNW (290°)9.2 mphClear
10:51 AM39.9 °F26.1 °F58 %30.06 in10.0 miVariable4.6 mph18.4 mphClear
11:51 AM41.0 °F26.1 °F55 %30.05 in10.0 miNW (310°)8.1 mphPartly Cloudy
12:51 PM42.1 °F25.0 °F51 %30.04 in10.0 miNW (310°)9.2 mph16.1 mphMostly Cloudy
1:51 PM43.0 °F25.0 °F49 %30.05 in10.0 miVariable5.8 mphClear
2:51 PM42.1 °F25.0 °F51 %30.04 in10.0 miVariable6.9 mphClear
3:51 PM42.1 °F24.1 °F49 %30.05 in10.0 miCalmClear
4:51 PM41.0 °F24.1 °F51 %30.07 in10.0 miCalmClear
5:51 PM39.9 °F24.1 °F53 %30.06 in10.0 miCalmMostly Cloudy
6:51 PM39.9 °F24.1 °F53 %30.09 in10.0 miNorth (10°)4.6 mphOvercast
7:51 PM39.9 °F24.1 °F53 %30.08 in10.0 miWNW (300°)4.6 mphOvercast
8:51 PM39.0 °F24.1 °F55 %30.05 in10.0 miNorth (350°)8.1 mphMostly Cloudy
9:51 PM37.0 °F24.1 °F59 %30.06 in10.0 miNE (40°)8.1 mph17.3 mphOvercast
10:51 PM36.0 °F24.1 °F62 %30.01 in10.0 miVariable5.8 mphClear
11:51 PM36.0 °F21.9 °F57 %30.04 in10.0 miNE (50°)6.9 mphOvercast
Hourly data recorded from KNYC, located miles away from New York - Central Park, New York







STORIES FROM OUR PARTNERS